| time (UTC) | temp F | wind direction | speed MPH | gust MPH | rain 1hr in | rain 24hr in | rain mn in | humidity % | barometer mb |
| 20260505183002 | 85 | 137 | 3.0 | 11.0 | 0.00 | 0.00 | 0.00 | 41 | 1025.7 |
| 20260505181600 | 85 | 327 | 2.0 | 12.0 | 0.00 | 0.00 | 0.00 | 38 | 1025.7 |
| 20260505180109 | 85 | 69 | 4.0 | 10.0 | 0.00 | 0.00 | 0.00 | 40 | 1025.7 |
| 20260505174605 | 85 | 290 | 2.0 | 10.0 | 0.00 | 0.00 | 0.00 | 39 | 1025.7 |
| 20260505173057 | 85 | 271 | 2.0 | 8.0 | 0.00 | 0.00 | 0.00 | 40 | 1025.7 |
| 20260505171553 | 84 | 315 | 0.0 | 6.0 | 0.00 | 0.00 | 0.00 | 39 | 1025.7 |
| 20260505170053 | 84 | 267 | 2.0 | 8.0 | 0.00 | 0.00 | 0.00 | 39 | 1025.7 |
| 20260505164551 | 84 | 320 | 0.0 | 6.0 | 0.00 | 0.00 | 0.00 | 38 | 1025.7 |
| 20260505163049 | 82 | 350 | 0.0 | 9.0 | 0.00 | 0.00 | 0.00 | 41 | 1025.7 |
| 20260505161545 | 81 | 273 | 1.0 | 7.0 | 0.00 | 0.00 | 0.00 | 45 | 1025.7 |
| 20260505153034 | 78 | 31 | 0.0 | 6.0 | 0.00 | 0.00 | 0.00 | 49 | 1025.7 |
| 20260505151532 | 76 | 277 | 0.0 | 5.0 | 0.00 | 0.00 | 0.00 | 53 | 1025.7 |
| 20260505124504 | 65 | 253 | 0.0 | 4.0 | 0.00 | 0.00 | 0.00 | 67 | 1025.7 |
| 20260505123001 | 64 | 325 | 0.0 | 2.0 | 0.00 | 0.00 | 0.00 | 68 | 1025.7 |
| 20260505121558 | 63 | 251 | 0.0 | 7.0 | 0.00 | 0.00 | 0.00 | 70 | 1025.7 |
| 20260505120053 | 61 | 271 | 0.0 | 1.0 | 0.00 | 0.00 | 0.00 | 74 | 1025.7 |
| 20260505114549 | 59 | 236 | 0.0 | 0.0 | 0.00 | 0.00 | 0.00 | 75 | 1025.7 |
| 20260505113045 | 58 | 235 | 0.0 | 4.0 | 0.00 | 0.00 | 0.00 | 78 | 1025.7 |
| 20260505111543 | 57 | 246 | 0.0 | 6.0 | 0.00 | 0.00 | 0.00 | 79 | 1025.7 |
| 20260505101537 | 53 | 195 | 0.0 | 0.0 | 0.00 | 0.00 | 0.00 | 82 | 1025.7 |
| 20260505100035 | 52 | 194 | 0.0 | 0.0 | 0.00 | 0.00 | 0.00 | 83 | 1025.7 |
| 20260505094533 | 51 | 187 | 0.0 | 0.0 | 0.00 | 0.00 | 0.00 | 83 | 1025.7 |
| 20260505093037 | 51 | 187 | 0.0 | 0.0 | 0.00 | 0.00 | 0.00 | 82 | 1025.7 |
| 20260505091531 | 51 | 187 | 0.0 | 0.0 | 0.00 | 0.00 | 0.00 | 82 | 1025.7 |
| 20260505090030 | 51 | 187 | 0.0 | 0.0 | 0.00 | 0.00 | 0.00 | 82 | 1025.7 |
| 20260505084529 | 51 | 187 | 0.0 | 0.0 | 0.00 | 0.00 | 0.00 | 81 | 1025.7 |
| 20260505083027 | 52 | 187 | 0.0 | 0.0 | 0.00 | 0.00 | 0.00 | 79 | 1025.7 |
| 20260505081523 | 52 | 187 | 0.0 | 0.0 | 0.00 | 0.00 | 0.00 | 79 | 1025.7 |
| 20260505080022 | 53 | 187 | 0.0 | 0.0 | 0.00 | 0.00 | 0.00 | 78 | 1025.7 |
| 20260505074521 | 53 | 187 | 0.0 | 0.0 | 0.00 | 0.00 | 0.00 | 78 | 1025.7 |
| 20260505073019 | 53 | 187 | 0.0 | 0.0 | 0.00 | 0.00 | 0.00 | 77 | 1025.7 |
| 20260505071517 | 53 | 187 | 0.0 | 0.0 | 0.00 | 0.00 | 0.00 | 76 | 1025.7 |
| 20260505070016 | 54 | 187 | 0.0 | 0.0 | 0.00 | 0.00 | 0.00 | 75 | 1025.7 |
| 20260505064513 | 54 | 187 | 0.0 | 0.0 | 0.00 | 0.00 | 0.00 | 74 | 1025.7 |
| 20260505063015 | 54 | 187 | 0.0 | 0.0 | 0.00 | 0.00 | 0.00 | 74 | 1025.7 |
| 20260505061511 | 55 | 187 | 0.0 | 0.0 | 0.00 | 0.00 | 0.00 | 73 | 1025.7 |
| 20260505060010 | 55 | 187 | 0.0 | 0.0 | 0.00 | 0.00 | 0.00 | 71 | 1025.7 |
| 20260505054507 | 55 | 187 | 0.0 | 5.0 | 0.00 | 0.00 | 0.00 | 71 | 1025.7 |
| 20260505053004 | 56 | 185 | 0.0 | 0.0 | 0.00 | 0.00 | 0.00 | 70 | 1025.7 |
| 20260505051510 | 56 | 185 | 0.0 | 4.0 | 0.00 | 0.00 | 0.00 | 69 | 1025.7 |
| 20260505041559 | 57 | 27 | 0.0 | 4.0 | 0.00 | 0.00 | 0.00 | 65 | 1025.7 |
| 20260505040054 | 57 | 160 | 0.0 | 5.0 | 0.00 | 0.00 | 0.00 | 64 | 1025.7 |
| 20260505034553 | 58 | 230 | 0.0 | 2.0 | 0.00 | 0.00 | 0.00 | 63 | 1025.7 |
| 20260505033053 | 58 | 169 | 0.0 | 4.0 | 0.00 | 0.00 | 0.00 | 62 | 1025.7 |
| 20260505031557 | 58 | 59 | 0.0 | 1.0 | 0.00 | 0.00 | 0.00 | 61 | 1025.7 |
| 20260505030052 | 58 | 19 | 0.0 | 0.0 | 0.00 | 0.00 | 0.00 | 60 | 1025.7 |
| 20260505024554 | 59 | 19 | 0.0 | 0.0 | 0.00 | 0.00 | 0.00 | 59 | 1025.7 |
| 20260505023051 | 60 | 21 | 0.0 | 0.0 | 0.00 | 0.00 | 0.00 | 57 | 1025.7 |
| 20260505021552 | 61 | 19 | 0.0 | 7.0 | 0.00 | 0.00 | 0.00 | 56 | 1025.7 |
| 20260505020059 | 61 | 64 | 0.0 | 0.0 | 0.00 | 0.00 | 0.00 | 55 | 1025.7 |
| 20260505014552 | 61 | 289 | 1.0 | 5.0 | 0.00 | 0.00 | 0.00 | 55 | 1025.7 |
| 20260505013049 | 62 | 135 | 0.0 | 6.0 | 0.00 | 0.00 | 0.00 | 54 | 1025.7 |
| 20260505011551 | 62 | 290 | 0.0 | 9.0 | 0.00 | 0.00 | 0.00 | 54 | 1025.7 |
| 20260505010107 | 63 | 52 | 0.0 | 5.0 | 0.00 | 0.00 | 0.00 | 52 | 1025.7 |
| 20260505004548 | 64 | 258 | 0.0 | 1.0 | 0.00 | 0.00 | 0.00 | 51 | 1025.7 |
| 20260505003054 | 64 | 263 | 0.0 | 6.0 | 0.00 | 0.00 | 0.00 | 50 | 1025.7 |
| 20260505001547 | 65 | 267 | 0.0 | 10.0 | 0.00 | 0.00 | 0.00 | 49 | 1025.7 |
| 20260505000048 | 66 | 314 | 0.0 | 2.0 | 0.00 | 0.00 | 0.00 | 46 | 1025.7 |
| 20260504234546 | 67 | 329 | 0.0 | 4.0 | 0.00 | 0.00 | 0.00 | 44 | 1025.7 |
| 20260504233102 | 68 | 210 | 0.0 | 5.0 | 0.00 | 0.00 | 0.00 | 41 | 1025.7 |
| 20260504231547 | 69 | 265 | 0.0 | 5.0 | 0.00 | 0.00 | 0.00 | 37 | 1025.7 |
| 20260504230053 | 70 | 29 | 0.0 | 0.0 | 0.00 | 0.00 | 0.00 | 37 | 1025.7 |
| 20260504224543 | 71 | 32 | 0.0 | 5.0 | 0.00 | 0.00 | 0.00 | 37 | 1025.7 |
| 20260504223044 | 71 | 320 | 0.0 | 4.0 | 0.00 | 0.00 | 0.00 | 35 | 1025.7 |
| 20260504221542 | 72 | 321 | 0.0 | 6.0 | 0.00 | 0.00 | 0.00 | 35 | 1025.7 |
| 20260504220043 | 72 | 134 | 1.0 | 7.0 | 0.00 | 0.00 | 0.00 | 34 | 1025.7 |
| 20260504214543 | 72 | 273 | 0.0 | 7.0 | 0.00 | 0.00 | 0.00 | 35 | 1025.7 |
| 20260504213041 | 73 | 240 | 3.0 | 8.0 | 0.00 | 0.00 | 0.00 | 32 | 1025.7 |
| 20260504211541 | 73 | 264 | 1.0 | 6.0 | 0.00 | 0.00 | 0.00 | 32 | 1025.7 |
| 20260504210044 | 73 | 170 | 0.0 | 9.0 | 0.00 | 0.00 | 0.00 | 33 | 1025.7 |
| 20260504204547 | 73 | 285 | 1.0 | 7.0 | 0.00 | 0.00 | 0.00 | 32 | 1025.7 |
| 20260504203053 | 73 | 283 | 0.0 | 8.0 | 0.00 | 0.00 | 0.00 | 31 | 1025.7 |
| 20260504201538 | 73 | 266 | 0.0 | 8.0 | 0.00 | 0.00 | 0.00 | 31 | 1025.7 |
| 20260504200037 | 72 | 14 | 1.0 | 7.0 | 0.00 | 0.00 | 0.00 | 30 | 1025.7 |
| 20260504194537 | 73 | 18 | 0.0 | 8.0 | 0.00 | 0.00 | 0.00 | 30 | 1025.7 |
| 20260504193035 | 73 | 284 | 1.0 | 12.0 | 0.00 | 0.00 | 0.00 | 31 | 1025.7 |
| 20260504191534 | 73 | 281 | 2.0 | 8.0 | 0.00 | 0.00 | 0.00 | 30 | 1025.7 |
| 20260504190042 | 73 | 320 | 0.0 | 7.0 | 0.00 | 0.00 | 0.00 | 31 | 1025.7 |
| 20260504184535 | 74 | 271 | 1.0 | 8.0 | 0.00 | 0.00 | 0.00 | 29 | 1025.7 |